STARLINK-3942 (52563 NORAD) Tracking and Keplerian Element Data

This shows tracking and keplerian element data for the satellite.

Feedback or suggestion? Click here.




ElementValue
Catalog52563
NameSTARLINK-3942
Epoch Orbit130
Epoch Day167.08334491
Epoch Year2022
RAAN132.2824
Inclination53.2173
Eccentricity0.0001812
Argument of Perigee41.3011
Mean Anonmoly133.46
Mean Motion15.32924326
Decay Rate-0.00817286
L11 52563U 22051AG 22167.08334491 -.00817286 00000+0 -27382-1 0 9997
L22 52563 53.2173 132.2824 0001812 41.3011 133.4600 15.32924326 1306

Live tracking and technical data element details for STARLINK-3942 (NORAD 52563). STARLINK-3942 can be tracked NOW for your location showing map with azimuth and elevation plus other details from your city location.

Track the satellite on the map from your city or location and see movement details for azimuth, elevation, latitude, longitude, range, height, and movement on the map or in text.







IsCatalogInMostPopularTable: catalog: 52563, numindb: 3
Update: records affected: 1



GetName: 52563 STARLINK-3942

Hit Count: updated at: Mon, 27 Jun 2022 05:27:39 GMT